| time (UTC) | temp C | wind direction | speed KPH | gust KPH | rain 1hr cm | rain 24hr cm | rain mn cm | humidity % | barometer mb |
| 20260506194514 | 20 | 82 | 3.2 | 11.3 | 0.00 | 0.00 | 0.00 | 41 | 1021.4 |
| 20260506193022 | 20 | 107 | 3.2 | 11.3 | 0.00 | 0.00 | 0.00 | 42 | 1021.5 |
| 20260506191509 | 20 | 46 | 6.4 | 9.7 | 0.00 | 0.00 | 0.00 | 39 | 1021.8 |
| 20260506190009 | 20 | 318 | 4.8 | 9.7 | 0.00 | 0.00 | 0.00 | 38 | 1021.8 |
| 20260506184508 | 19 | 328 | 3.2 | 8.0 | 0.00 | 0.00 | 0.00 | 43 | 1021.9 |
| 20260506183008 | 18 | 340 | 3.2 | 8.0 | 0.00 | 0.00 | 0.00 | 45 | 1021.9 |
| 20260506181504 | 18 | 319 | 4.8 | 9.7 | 0.00 | 0.00 | 0.00 | 49 | 1021.9 |
| 20260506180006 | 18 | 297 | 6.4 | 11.3 | 0.00 | 0.00 | 0.00 | 50 | 1021.9 |
| 20260506174509 | 17 | 309 | 6.4 | 12.9 | 0.00 | 0.00 | 0.00 | 50 | 1021.9 |
| 20260506173013 | 17 | 16 | 1.6 | 6.4 | 0.00 | 0.00 | 0.00 | 54 | 1021.8 |
| 20260506171510 | 16 | 15 | 3.2 | 8.0 | 0.00 | 0.00 | 0.00 | 54 | 1021.8 |
| 20260506170004 | 16 | 1 | 3.2 | 8.0 | 0.00 | 0.00 | 0.00 | 61 | 1021.8 |
| 20260506164507 | 15 | 359 | 1.6 | 6.4 | 0.00 | 0.00 | 0.00 | 63 | 1021.7 |
| 20260506163015 | 15 | 356 | 1.6 | 6.4 | 0.00 | 0.00 | 0.00 | 65 | 1021.7 |
| 20260506161513 | 13 | 297 | 1.6 | 4.8 | 0.00 | 0.00 | 0.00 | 66 | 1021.8 |
| 20260506160016 | 13 | 295 | 1.6 | 6.4 | 0.00 | 0.00 | 0.00 | 69 | 1021.7 |
| 20260506154504 | 12 | 285 | 1.6 | 4.8 | 0.00 | 0.00 | 0.00 | 70 | 1021.6 |
| 20260506153008 | 12 | 284 | 1.6 | 4.8 | 0.00 | 0.00 | 0.00 | 71 | 1021.5 |
| 20260506151512 | 11 | 256 | 0.0 | 0.0 | 0.00 | 0.00 | 0.00 | 74 | 1021.7 |
| 20260506150014 | 11 | 256 | 0.0 | 0.0 | 0.00 | 0.00 | 0.00 | 72 | 1021.6 |
| 20260506144516 | 10 | 256 | 0.0 | 1.6 | 0.00 | 0.00 | 0.00 | 79 | 1021.6 |
| 20260506143013 | 9 | 256 | 0.0 | 0.0 | 0.00 | 0.00 | 0.00 | 83 | 1021.4 |
| 20260506141508 | 8 | 256 | 0.0 | 0.0 | 0.00 | 0.00 | 0.00 | 85 | 1021.2 |
| 20260506140012 | 7 | 256 | 0.0 | 0.0 | 0.00 | 0.00 | 0.00 | 89 | 1021.0 |
| 20260506134517 | 6 | 256 | 0.0 | 0.0 | 0.00 | 0.00 | 0.00 | 91 | 1020.6 |
| 20260506133017 | 5 | 256 | 0.0 | 0.0 | 0.00 | 0.00 | 0.00 | 91 | 1020.4 |
| 20260506131504 | 5 | 256 | 0.0 | 4.8 | 0.00 | 0.00 | 0.00 | 90 | 1020.3 |
| 20260506130008 | 5 | 256 | 0.0 | 4.8 | 0.00 | 0.00 | 0.00 | 90 | 1020.0 |
| 20260506124512 | 5 | 256 | 0.0 | 0.0 | 0.00 | 0.00 | 0.00 | 90 | 1019.6 |
| 20260506123018 | 5 | 256 | 0.0 | 0.0 | 0.00 | 0.00 | 0.00 | 90 | 1019.5 |
| 20260506121518 | 5 | 256 | 0.0 | 0.0 | 0.00 | 0.00 | 0.00 | 89 | 1019.3 |
| 20260506120004 | 5 | 256 | 0.0 | 0.0 | 0.00 | 0.00 | 0.00 | 89 | 1019.1 |
| 20260506114510 | 5 | 256 | 0.0 | 0.0 | 0.00 | 0.00 | 0.00 | 89 | 1018.9 |
| 20260506113016 | 5 | 256 | 0.0 | 3.2 | 0.00 | 0.00 | 0.00 | 89 | 1018.8 |
| 20260506111526 | 5 | 256 | 1.6 | 3.2 | 0.00 | 0.00 | 0.00 | 87 | 1018.6 |
| 20260506110023 | 6 | 256 | 0.0 | 3.2 | 0.00 | 0.00 | 0.00 | 88 | 1018.4 |
| 20260506104518 | 6 | 256 | 3.2 | 4.8 | 0.00 | 0.03 | 0.00 | 87 | 1018.1 |
| 20260506103019 | 6 | 256 | 1.6 | 6.4 | 0.00 | 0.05 | 0.00 | 87 | 1018.0 |
| 20260506101514 | 6 | 256 | 1.6 | 4.8 | 0.00 | 0.05 | 0.00 | 86 | 1017.9 |
| 20260506100022 | 6 | 256 | 1.6 | 3.2 | 0.00 | 0.08 | 0.00 | 85 | 1017.7 |
| 20260506094505 | 6 | 256 | 1.6 | 4.8 | 0.00 | 0.15 | 0.00 | 85 | 1017.5 |
| 20260506093012 | 6 | 256 | 3.2 | 6.4 | 0.00 | 0.18 | 0.00 | 83 | 1017.5 |
| 20260506091515 | 7 | 257 | 3.2 | 4.8 | 0.00 | 0.18 | 0.00 | 83 | 1017.4 |
| 20260506090016 | 7 | 257 | 3.2 | 4.8 | 0.00 | 0.20 | 0.00 | 80 | 1017.3 |
| 20260506084520 | 8 | 257 | 0.0 | 4.8 | 0.00 | 0.23 | 0.00 | 79 | 1017.4 |
| 20260506083003 | 8 | 277 | 3.2 | 9.7 | 0.00 | 0.25 | 0.00 | 80 | 1017.3 |
| 20260506081508 | 8 | 271 | 3.2 | 8.0 | 0.00 | 0.28 | 0.00 | 79 | 1017.3 |
| 20260506073024 | 8 | 106 | 1.6 | 6.4 | 0.00 | 0.30 | 0.00 | 81 | 1016.7 |
| 20260506071508 | 8 | 89 | 0.0 | 4.8 | 0.00 | 0.30 | 0.00 | 79 | 1016.5 |
| 20260506061525 | 10 | 208 | 6.4 | 12.9 | 0.00 | 0.38 | 0.36 | 76 | 1016.7 |
| 20260506044511 | 10 | 226 | 3.2 | 4.8 | 0.00 | 0.53 | 0.36 | 74 | 1015.0 |
| 20260506043016 | 10 | 226 | 4.8 | 8.0 | 0.00 | 0.56 | 0.36 | 73 | 1014.8 |
| 20260506041519 | 10 | 113 | 3.2 | 6.4 | 0.00 | 0.58 | 0.36 | 72 | 1014.9 |
| 20260506040024 | 10 | 89 | 4.8 | 9.7 | 0.00 | 0.58 | 0.36 | 75 | 1014.7 |
| 20260506034528 | 10 | 73 | 4.8 | 6.4 | 0.00 | 0.61 | 0.36 | 76 | 1014.5 |
| 20260506033012 | 11 | 215 | 1.6 | 4.8 | 0.00 | 0.61 | 0.36 | 72 | 1014.2 |
| 20260506031517 | 11 | 215 | 3.2 | 6.4 | 0.00 | 0.61 | 0.36 | 70 | 1013.9 |
| 20260506030022 | 11 | 216 | 1.6 | 6.4 | 0.00 | 0.61 | 0.36 | 71 | 1013.8 |
| 20260506024526 | 12 | 217 | 1.6 | 4.8 | 0.00 | 0.61 | 0.36 | 69 | 1013.6 |
| 20260506023029 | 12 | 216 | 1.6 | 8.0 | 0.00 | 0.61 | 0.36 | 66 | 1013.5 |
| 20260506021514 | 13 | 216 | 3.2 | 6.4 | 0.00 | 0.61 | 0.36 | 63 | 1013.4 |
| 20260506020030 | 15 | 217 | 3.2 | 6.4 | 0.00 | 0.61 | 0.36 | 59 | 1013.3 |
| 20260506014525 | 16 | 186 | 3.2 | 8.0 | 0.00 | 0.61 | 0.36 | 51 | 1013.3 |
| 20260506013029 | 17 | 182 | 4.8 | 8.0 | 0.00 | 0.61 | 0.36 | 48 | 1013.3 |
| 20260506011509 | 17 | 39 | 1.6 | 4.8 | 0.00 | 0.64 | 0.36 | 45 | 1013.3 |
| 20260506010025 | 17 | 39 | 3.2 | 8.0 | 0.00 | 0.66 | 0.36 | 46 | 1013.3 |
| 20260506004509 | 17 | 39 | 4.8 | 8.0 | 0.00 | 0.66 | 0.36 | 46 | 1013.3 |
| 20260506003006 | 17 | 33 | 3.2 | 6.4 | 0.00 | 0.66 | 0.36 | 45 | 1013.3 |
| 20260506001512 | 17 | 349 | 1.6 | 8.0 | 0.00 | 0.66 | 0.36 | 48 | 1013.4 |
| 20260506000028 | 17 | 33 | 3.2 | 9.7 | 0.00 | 0.66 | 0.36 | 47 | 1013.5 |
| 20260505234522 | 17 | 21 | 4.8 | 11.3 | 0.00 | 0.66 | 0.36 | 52 | 1013.5 |
| 20260505233003 | 17 | 345 | 3.2 | 8.0 | 0.00 | 0.66 | 0.36 | 47 | 1013.5 |
| 20260505231513 | 17 | 2 | 3.2 | 8.0 | 0.00 | 0.66 | 0.36 | 47 | 1013.5 |
| 20260505230028 | 17 | 300 | 1.6 | 8.0 | 0.00 | 0.66 | 0.36 | 46 | 1013.7 |
| 20260505224516 | 17 | 225 | 4.8 | 11.3 | 0.00 | 0.66 | 0.36 | 49 | 1013.8 |
| 20260505223022 | 16 | 1 | 4.8 | 8.0 | 0.00 | 0.66 | 0.36 | 52 | 1014.0 |
| 20260505221508 | 16 | 288 | 3.2 | 9.7 | 0.00 | 0.66 | 0.36 | 54 | 1014.0 |
| 20260505220011 | 16 | 356 | 4.8 | 8.0 | 0.00 | 0.66 | 0.36 | 52 | 1014.1 |
| 20260505214520 | 15 | 360 | 4.8 | 9.7 | 0.00 | 0.66 | 0.36 | 57 | 1014.3 |
| 20260505213021 | 15 | 328 | 0.0 | 8.0 | 0.00 | 0.66 | 0.36 | 60 | 1014.5 |
| 20260505211530 | 15 | 320 | 1.6 | 8.0 | 0.00 | 0.66 | 0.36 | 61 | 1014.8 |
| 20260505210013 | 15 | 290 | 6.4 | 11.3 | 0.00 | 0.66 | 0.36 | 62 | 1014.9 |
| 20260505204511 | 14 | 273 | 4.8 | 8.0 | 0.00 | 0.66 | 0.36 | 67 | 1014.9 |
| 20260505203017 | 13 | 61 | 3.2 | 6.4 | 0.00 | 0.66 | 0.36 | 70 | 1015.0 |
| 20260505201520 | 12 | 25 | 1.6 | 6.4 | 0.00 | 0.66 | 0.36 | 74 | 1015.1 |
| 20260505200023 | 12 | 13 | 3.2 | 9.7 | 0.00 | 0.66 | 0.36 | 72 | 1015.2 |